COSMOS 1275 DEB, 42178

Orbit data source: Space-Track

COSMOS 1275 DEB, 42178 is space debris in LEO originally from a launch on Thu, 04 Jun 1981 UTC launched from the Plesetsk Missile And Space Complex (PKMTR). Debris objects in space refer to the collection of defunct objects orbiting the Earth. Examples of debris include non-operational satellites, rocket bodies, and fragments generated from explosions, collisions, or faulty payload assembly.

Loading next visibility...
Identifier
42178, 1981-053SS
Orbit
LEO
Country
Flag of CISCIS
Related business
Manufacturer
Unknown
Mission
Spacecraft
Bus & Motor
Unknown
Mass
Unknown
Launch date (UTC)
1981-06-04 (45 years ago)
Launch vehicle
Unknown
Launch site
Plesetsk Missile And Space Complex (PKMTR)
Object type
Payload
Rocket body
Debris
Shape & HBR
Unknown shape, 0.1 m
Radar Cross Section
Small (<0.1 m²)

Expand to show TLE details & history
Last TLE update: 5 days ago

TLE from 5 days ago
0 COSMOS 1275 DEB
1 42178U 81053SS  25337.40487530  .00004907  00000-0  19593-2 0  9999
2 42178  82.9398 223.4145 0006661 209.5402 150.5409 14.28314963602996
Epoch: 2025-12-03T09:43Z
TLE epoch observation values (Epoch: 2025-12-03T09:43:01.225Z)
Latitude
0.00001°
Longitude
5.18325°
Altitude
804.506 km
Speed
7.449 km/s
True Right ascension
14h 53m 39s
True Declination
0° 00' 00"
Sunlit
Object was in daylight at epoch
Visualization orbit readout
Latitude
Unknown
Longitude
Unknown
Altitude
Unknown
Speed
Unknown
Apparent Right ascension
Unknown
Apparent Declination
Unknown
Sunlit
N/A
Visualization observer readout
Local Sidereal Time
09:12:10
Azimuth
Unknown
Elevation
Unknown
Doppler factor
Unknown
Orbital elements
Apogee altitude
799.222 km
Perigee altitude
789.667 km
Semi-major axis
7,172.581 km
Eccentricity
0.00067
Inclination
82.9398°
RAAN
223.4145°
Arg. of periapsis
209.5402°
True anomaly
150.57841°
Mean anomaly
150.5409°
Eccentric anomaly
150.55966°
Mean motion
3.57297 °/min
Orbital period
100.76 mins
BSTAR
0.0019593
Loading maneuver chart data...
Computing Atmospheric mass density...
Loading historical data...
Loading historical data...
Loading historical data...
Loading historical data...
Loading historical data...
Loading historical data...
Loading historical data...

Documentation

Showing up to 5 results
|